User: anonymous   Login
Location: Unspecified
(0.0000°N, 0.0000°E)
Time: 07:23:06
(UTC+00:00)
Language:

ROBUSTA - Orbit

View from above orbital plane
View from above orbital plane
View from above satellite
View from above satellite

Ground track
Ground track

The orbit data is extracted from the following two-line orbital elements,

1 38084U 12006H   15 27.67615865  .06348435  00000-0  93957-3 0  9260
2 38084 069.3936 096.9914 0019855 020.5600 339.7407 16.33497838157862
Epoch (UTC): 27 January 2015 16:13:40
Eccentricity: 0.0019855
inclination: 69.3936°
perigee height: 170 km
apogee height: 196 km
right ascension of ascending node: 96.9914°
argument of perigee: 20.5600°
revolutions per day: 16.33497838
mean anomaly at epoch: 339.7407°
orbit number at epoch: 15786

The dashed part of the orbit path shows where the satellite is in the earth's shadow,  

DLR